| time (UTC) | temp C | wind direction | speed KPH | gust KPH | rain 1hr cm | rain 24hr cm | rain mn cm | humidity % | barometer mb |
| 20260508010016 | 8 | 94 | 0.0 | 0.0 | 0.00 | 0.00 | 0.00 | 93 | 1011.1 |
| 20260508005516 | 8 | 94 | 0.0 | 0.0 | 0.00 | 0.00 | 0.00 | 93 | 1011.2 |
| 20260508005027 | 8 | 94 | 0.0 | 0.0 | 0.00 | 0.00 | 0.00 | 93 | 1011.3 |
| 20260508004527 | 8 | 94 | 0.0 | 0.0 | 0.00 | 0.00 | 0.00 | 93 | 1011.2 |
| 20260508003528 | 8 | 94 | 0.0 | 0.0 | 0.00 | 0.00 | 0.00 | 93 | 1011.3 |
| 20260508003027 | 8 | 94 | 0.0 | 0.0 | 0.00 | 0.00 | 0.00 | 93 | 1011.4 |
| 20260508002516 | 8 | 94 | 0.0 | 0.0 | 0.00 | 0.00 | 0.00 | 92 | 1011.4 |
| 20260508002015 | 8 | 94 | 0.0 | 0.0 | 0.00 | 0.00 | 0.00 | 93 | 1011.5 |
| 20260508001527 | 8 | 94 | 0.0 | 0.0 | 0.00 | 0.00 | 0.00 | 93 | 1011.5 |
| 20260508001014 | 8 | 94 | 0.0 | 0.0 | 0.00 | 0.00 | 0.00 | 92 | 1011.5 |
| 20260508000527 | 8 | 94 | 0.0 | 0.0 | 0.00 | 0.00 | 0.00 | 93 | 1011.5 |
| 20260508000017 | 8 | 94 | 0.0 | 0.0 | 0.00 | 0.00 | 0.00 | 93 | 1011.6 |
| 20260507235516 | 8 | 94 | 0.0 | 0.0 | 0.00 | 0.00 | 0.00 | 92 | 1011.7 |
| 20260507235027 | 9 | 94 | 0.0 | 0.0 | 0.00 | 0.00 | 0.00 | 92 | 1011.6 |
| 20260507234527 | 9 | 94 | 0.0 | 0.0 | 0.00 | 0.00 | 0.00 | 92 | 1011.7 |
| 20260507234015 | 9 | 94 | 0.0 | 0.0 | 0.00 | 0.00 | 0.00 | 92 | 1011.7 |
| 20260507233516 | 9 | 94 | 0.0 | 0.0 | 0.00 | 0.00 | 0.00 | 92 | 1011.7 |
| 20260507233016 | 9 | 94 | 0.0 | 0.0 | 0.00 | 0.00 | 0.00 | 91 | 1011.7 |
| 20260507232516 | 9 | 94 | 0.0 | 0.0 | 0.00 | 0.00 | 0.00 | 91 | 1011.8 |
| 20260507232016 | 10 | 94 | 0.0 | 0.0 | 0.00 | 0.00 | 0.00 | 91 | 1011.7 |
| 20260507231519 | 10 | 94 | 0.0 | 0.0 | 0.00 | 0.00 | 0.00 | 92 | 1011.8 |
| 20260507231014 | 10 | 94 | 0.0 | 0.0 | 0.00 | 0.00 | 0.00 | 92 | 1011.7 |
| 20260507230516 | 10 | 94 | 0.0 | 0.0 | 0.00 | 0.00 | 0.00 | 91 | 1011.7 |
| 20260507230015 | 10 | 94 | 0.0 | 0.0 | 0.00 | 0.00 | 0.00 | 91 | 1011.7 |
| 20260507225516 | 10 | 94 | 0.0 | 0.0 | 0.00 | 0.00 | 0.00 | 91 | 1011.8 |
| 20260507225016 | 10 | 94 | 0.0 | 0.0 | 0.00 | 0.00 | 0.00 | 91 | 1011.8 |
| 20260507224516 | 10 | 94 | 0.0 | 0.0 | 0.00 | 0.00 | 0.00 | 91 | 1011.8 |
| 20260507224027 | 10 | 94 | 0.0 | 0.0 | 0.00 | 0.00 | 0.00 | 91 | 1011.8 |
| 20260507223516 | 10 | 94 | 0.0 | 0.0 | 0.00 | 0.00 | 0.00 | 90 | 1011.9 |
| 20260507223027 | 10 | 94 | 0.0 | 0.0 | 0.00 | 0.00 | 0.00 | 90 | 1011.8 |
| 20260507222516 | 10 | 94 | 0.0 | 0.0 | 0.00 | 0.00 | 0.00 | 90 | 1011.8 |
| 20260507222027 | 10 | 94 | 0.0 | 0.0 | 0.00 | 0.00 | 0.00 | 89 | 1011.7 |
| 20260507221517 | 10 | 94 | 0.0 | 0.0 | 0.00 | 0.00 | 0.00 | 89 | 1011.7 |
| 20260507221016 | 10 | 94 | 0.0 | 0.0 | 0.00 | 0.00 | 0.00 | 88 | 1011.6 |
| 20260507220516 | 11 | 94 | 0.0 | 0.0 | 0.00 | 0.00 | 0.00 | 88 | 1011.6 |
| 20260507220017 | 11 | 94 | 0.0 | 0.0 | 0.00 | 0.00 | 0.00 | 88 | 1011.5 |
| 20260507215516 | 11 | 94 | 0.0 | 0.0 | 0.00 | 0.00 | 0.00 | 88 | 1011.5 |
| 20260507215027 | 11 | 94 | 0.0 | 0.0 | 0.00 | 0.00 | 0.00 | 88 | 1011.5 |
| 20260507214517 | 12 | 94 | 0.0 | 0.0 | 0.00 | 0.00 | 0.00 | 88 | 1011.5 |
| 20260507214017 | 12 | 94 | 0.0 | 0.0 | 0.00 | 0.00 | 0.00 | 88 | 1011.4 |
| 20260507213516 | 12 | 94 | 0.0 | 0.0 | 0.00 | 0.00 | 0.00 | 88 | 1011.4 |
| 20260507213017 | 12 | 94 | 0.0 | 0.0 | 0.00 | 0.00 | 0.00 | 87 | 1011.4 |
| 20260507212516 | 12 | 94 | 0.0 | 0.0 | 0.00 | 0.00 | 0.00 | 86 | 1011.5 |
| 20260507212028 | 12 | 94 | 0.0 | 0.0 | 0.00 | 0.00 | 0.00 | 85 | 1011.4 |
| 20260507211517 | 13 | 94 | 0.0 | 0.0 | 0.00 | 0.00 | 0.00 | 85 | 1011.4 |
| 20260507211027 | 13 | 94 | 0.0 | 0.0 | 0.00 | 0.00 | 0.00 | 85 | 1011.5 |
| 20260507210515 | 13 | 94 | 0.0 | 0.0 | 0.00 | 0.00 | 0.00 | 84 | 1011.5 |
| 20260507210016 | 13 | 94 | 0.0 | 0.0 | 0.00 | 0.00 | 0.00 | 84 | 1011.4 |
| 20260507205515 | 14 | 94 | 0.0 | 0.0 | 0.00 | 0.00 | 0.00 | 83 | 1011.3 |
| 20260507205016 | 14 | 94 | 0.0 | 1.6 | 0.00 | 0.00 | 0.00 | 83 | 1011.4 |
| 20260507204516 | 15 | 94 | 0.0 | 1.6 | 0.00 | 0.00 | 0.00 | 82 | 1011.4 |
| 20260507204026 | 15 | 96 | 0.0 | 1.6 | 0.00 | 0.00 | 0.00 | 81 | 1011.4 |
| 20260507203515 | 15 | 91 | 0.0 | 1.6 | 0.00 | 0.00 | 0.00 | 81 | 1011.4 |
| 20260507203015 | 15 | 91 | 0.0 | 3.2 | 0.00 | 0.00 | 0.00 | 80 | 1011.3 |
| 20260507202516 | 14 | 105 | 0.0 | 3.2 | 0.00 | 0.00 | 0.00 | 82 | 1011.2 |
| 20260507202016 | 14 | 106 | 0.0 | 3.2 | 0.00 | 0.00 | 0.00 | 83 | 1011.2 |
| 20260507201516 | 13 | 154 | 0.0 | 3.2 | 0.00 | 0.00 | 0.00 | 82 | 1011.2 |
| 20260507201016 | 13 | 106 | 0.0 | 0.0 | 0.00 | 0.00 | 0.00 | 81 | 1011.3 |
| 20260507200517 | 14 | 106 | 0.0 | 0.0 | 0.00 | 0.00 | 0.00 | 79 | 1011.1 |
| 20260507200027 | 14 | 107 | 0.0 | 0.0 | 0.00 | 0.00 | 0.00 | 79 | 1011.1 |
| 20260507195516 | 15 | 106 | 0.0 | 0.0 | 0.00 | 0.00 | 0.00 | 78 | 1011.0 |
| 20260507195027 | 15 | 107 | 0.0 | 0.0 | 0.00 | 0.00 | 0.00 | 78 | 1010.9 |
| 20260507194516 | 15 | 106 | 0.0 | 0.0 | 0.00 | 0.00 | 0.00 | 77 | 1010.8 |
| 20260507194016 | 15 | 106 | 0.0 | 0.0 | 0.00 | 0.00 | 0.00 | 77 | 1010.7 |
| 20260507193516 | 15 | 107 | 0.0 | 0.0 | 0.00 | 0.00 | 0.00 | 76 | 1010.7 |
| 20260507193027 | 16 | 107 | 0.0 | 0.0 | 0.00 | 0.00 | 0.00 | 76 | 1010.6 |
| 20260507192516 | 16 | 107 | 0.0 | 1.6 | 0.00 | 0.00 | 0.00 | 76 | 1010.5 |
| 20260507192016 | 16 | 106 | 0.0 | 1.6 | 0.00 | 0.00 | 0.00 | 75 | 1010.5 |
| 20260507191527 | 16 | 109 | 0.0 | 1.6 | 0.00 | 0.00 | 0.00 | 75 | 1010.5 |
| 20260507191015 | 16 | 96 | 0.0 | 0.0 | 0.00 | 0.00 | 0.00 | 74 | 1010.5 |
| 20260507190516 | 17 | 96 | 0.0 | 0.0 | 0.00 | 0.00 | 0.00 | 74 | 1010.6 |
| 20260507190027 | 17 | 96 | 0.0 | 0.0 | 0.00 | 0.00 | 0.00 | 72 | 1010.6 |
| 20260507185516 | 17 | 96 | 0.0 | 1.6 | 0.00 | 0.00 | 0.00 | 71 | 1010.6 |
| 20260507185016 | 18 | 96 | 0.0 | 1.6 | 0.00 | 0.00 | 0.00 | 69 | 1010.6 |
| 20260507184516 | 18 | 69 | 0.0 | 1.6 | 0.00 | 0.00 | 0.00 | 70 | 1010.6 |
| 20260507184016 | 18 | 69 | 0.0 | 6.4 | 0.00 | 0.00 | 0.00 | 69 | 1010.5 |
| 20260507183516 | 19 | 139 | 1.6 | 4.8 | 0.00 | 0.00 | 0.00 | 63 | 1010.6 |
| 20260507183028 | 19 | 91 | 1.6 | 9.7 | 0.00 | 0.00 | 0.00 | 62 | 1010.5 |
| 20260507182516 | 19 | 77 | 3.2 | 11.3 | 0.00 | 0.00 | 0.00 | 61 | 1010.4 |
| 20260507182016 | 19 | 73 | 4.8 | 11.3 | 0.00 | 0.00 | 0.00 | 61 | 1010.3 |
| 20260507181527 | 20 | 115 | 1.6 | 9.7 | 0.00 | 0.00 | 0.00 | 61 | 1010.3 |
| 20260507181027 | 20 | 83 | 3.2 | 9.7 | 0.00 | 0.00 | 0.00 | 59 | 1010.3 |
| 20260507180528 | 20 | 148 | 4.8 | 12.9 | 0.00 | 0.00 | 0.00 | 59 | 1010.2 |
| 20260507180019 | 20 | 96 | 4.8 | 14.5 | 0.00 | 0.00 | 0.00 | 58 | 1010.3 |
| 20260507175516 | 20 | 61 | 6.4 | 14.5 | 0.00 | 0.00 | 0.00 | 58 | 1010.2 |
| 20260507175016 | 20 | 128 | 3.2 | 9.7 | 0.00 | 0.00 | 0.00 | 57 | 1010.2 |
| 20260507174527 | 20 | 98 | 4.8 | 12.9 | 0.00 | 0.00 | 0.00 | 56 | 1010.2 |
| 20260507174016 | 21 | 54 | 3.2 | 11.3 | 0.00 | 0.00 | 0.00 | 57 | 1010.2 |
| 20260507173516 | 21 | 62 | 4.8 | 11.3 | 0.00 | 0.00 | 0.00 | 56 | 1010.4 |
| 20260507173016 | 21 | 160 | 3.2 | 9.7 | 0.00 | 0.00 | 0.00 | 57 | 1010.4 |
| 20260507172516 | 21 | 69 | 4.8 | 11.3 | 0.00 | 0.00 | 0.00 | 55 | 1010.4 |
| 20260507172016 | 21 | 94 | 4.8 | 11.3 | 0.00 | 0.00 | 0.00 | 54 | 1010.5 |
| 20260507171516 | 21 | 115 | 3.2 | 11.3 | 0.00 | 0.00 | 0.00 | 56 | 1010.6 |
| 20260507171017 | 21 | 160 | 3.2 | 11.3 | 0.00 | 0.00 | 0.00 | 55 | 1010.7 |
| 20260507170516 | 21 | 127 | 4.8 | 12.9 | 0.00 | 0.00 | 0.00 | 54 | 1010.7 |
| 20260507170028 | 21 | 112 | 6.4 | 12.9 | 0.00 | 0.00 | 0.00 | 54 | 1010.7 |
| 20260507165516 | 22 | 136 | 4.8 | 11.3 | 0.00 | 0.00 | 0.00 | 54 | 1010.6 |
| 20260507165016 | 22 | 114 | 4.8 | 20.9 | 0.00 | 0.00 | 0.00 | 54 | 1010.7 |
| 20260507164517 | 22 | 144 | 4.8 | 20.9 | 0.00 | 0.00 | 0.00 | 53 | 1010.8 |
| 20260507164015 | 22 | 148 | 6.4 | 14.5 | 0.00 | 0.00 | 0.00 | 53 | 1010.7 |
| 20260507163515 | 22 | 68 | 4.8 | 12.9 | 0.00 | 0.00 | 0.00 | 54 | 1010.7 |
| 20260507163016 | 22 | 82 | 6.4 | 17.7 | 0.00 | 0.00 | 0.00 | 54 | 1010.5 |
| 20260507162516 | 22 | 58 | 4.8 | 17.7 | 0.00 | 0.00 | 0.00 | 54 | 1010.6 |
| 20260507162016 | 22 | 126 | 3.2 | 17.7 | 0.00 | 0.00 | 0.00 | 53 | 1010.7 |
| 20260507161519 | 22 | 161 | 3.2 | 17.7 | 0.00 | 0.00 | 0.00 | 54 | 1010.7 |
| 20260507161016 | 22 | 92 | 4.8 | 14.5 | 0.00 | 0.00 | 0.00 | 55 | 1010.7 |
| 20260507160516 | 22 | 343 | 4.8 | 14.5 | 0.00 | 0.00 | 0.00 | 55 | 1010.6 |
| 20260507160019 | 22 | 118 | 1.6 | 12.9 | 0.00 | 0.00 | 0.00 | 56 | 1010.6 |
| 20260507155517 | 21 | 83 | 6.4 | 12.9 | 0.00 | 0.00 | 0.00 | 54 | 1010.5 |
| 20260507155017 | 22 | 111 | 6.4 | 12.9 | 0.00 | 0.00 | 0.00 | 53 | 1010.5 |
| 20260507154516 | 22 | 152 | 4.8 | 12.9 | 0.00 | 0.00 | 0.00 | 53 | 1010.5 |
| 20260507154017 | 22 | 127 | 6.4 | 19.3 | 0.00 | 0.00 | 0.00 | 50 | 1010.4 |
| 20260507153517 | 23 | 153 | 9.7 | 19.3 | 0.00 | 0.00 | 0.00 | 50 | 1010.4 |
| 20260507153017 | 23 | 158 | 3.2 | 12.9 | 0.00 | 0.00 | 0.00 | 51 | 1010.3 |
| 20260507152516 | 23 | 122 | 3.2 | 12.9 | 0.00 | 0.00 | 0.00 | 52 | 1010.5 |
| 20260507152017 | 23 | 159 | 6.4 | 11.3 | 0.00 | 0.00 | 0.00 | 50 | 1010.3 |
| 20260507151517 | 23 | 91 | 4.8 | 11.3 | 0.00 | 0.00 | 0.00 | 50 | 1010.4 |
| 20260507151017 | 23 | 88 | 4.8 | 19.3 | 0.00 | 0.00 | 0.00 | 51 | 1010.3 |
| 20260507150518 | 23 | 120 | 6.4 | 19.3 | 0.00 | 0.00 | 0.00 | 51 | 1010.3 |
| 20260507150019 | 22 | 92 | 3.2 | 12.9 | 0.00 | 0.00 | 0.00 | 50 | 1010.2 |
| 20260507145527 | 23 | 153 | 4.8 | 9.7 | 0.00 | 0.00 | 0.00 | 50 | 1010.4 |
| 20260507145028 | 23 | 80 | 4.8 | 14.5 | 0.00 | 0.00 | 0.00 | 49 | 1010.4 |
| 20260507144517 | 23 | 150 | 6.4 | 14.5 | 0.00 | 0.00 | 0.00 | 49 | 1010.5 |
| 20260507144017 | 23 | 125 | 3.2 | 16.1 | 0.00 | 0.00 | 0.00 | 49 | 1010.7 |
| 20260507143528 | 23 | 168 | 8.0 | 16.1 | 0.00 | 0.00 | 0.00 | 49 | 1010.8 |
| 20260507143017 | 23 | 134 | 3.2 | 9.7 | 0.00 | 0.00 | 0.00 | 50 | 1010.7 |
| 20260507142517 | 23 | 110 | 1.6 | 8.0 | 0.00 | 0.00 | 0.00 | 51 | 1010.9 |
| 20260507142017 | 23 | 98 | 3.2 | 11.3 | 0.00 | 0.00 | 0.00 | 50 | 1010.9 |
| 20260507141528 | 23 | 114 | 4.8 | 17.7 | 0.00 | 0.00 | 0.00 | 49 | 1011.0 |
| 20260507141017 | 23 | 82 | 3.2 | 17.7 | 0.00 | 0.00 | 0.00 | 51 | 1011.0 |
| 20260507140517 | 23 | 111 | 3.2 | 12.9 | 0.00 | 0.00 | 0.00 | 50 | 1011.1 |
| 20260507140017 | 23 | 90 | 4.8 | 9.7 | 0.00 | 0.00 | 0.00 | 48 | 1011.1 |
| 20260507135527 | 23 | 150 | 4.8 | 9.7 | 0.00 | 0.00 | 0.00 | 50 | 1011.2 |
| 20260507135017 | 23 | 345 | 1.6 | 11.3 | 0.00 | 0.00 | 0.00 | 50 | 1011.3 |
| 20260507134517 | 22 | 103 | 3.2 | 12.9 | 0.00 | 0.00 | 0.00 | 51 | 1011.4 |
| 20260507134028 | 22 | 146 | 6.4 | 12.9 | 0.00 | 0.00 | 0.00 | 48 | 1011.5 |
| 20260507133517 | 22 | 112 | 4.8 | 11.3 | 0.00 | 0.00 | 0.00 | 50 | 1011.7 |
| 20260507133017 | 22 | 122 | 3.2 | 11.3 | 0.00 | 0.00 | 0.00 | 52 | 1011.7 |
| 20260507132518 | 22 | 115 | 4.8 | 9.7 | 0.00 | 0.00 | 0.00 | 52 | 1011.8 |
| 20260507132017 | 22 | 134 | 4.8 | 11.3 | 0.00 | 0.00 | 0.00 | 50 | 1011.8 |
| 20260507131528 | 22 | 107 | 6.4 | 14.5 | 0.00 | 0.00 | 0.00 | 53 | 1011.9 |
| 20260507131017 | 22 | 92 | 8.0 | 14.5 | 0.00 | 0.00 | 0.00 | 51 | 1012.0 |
| 20260507130517 | 22 | 165 | 4.8 | 14.5 | 0.00 | 0.00 | 0.00 | 52 | 1012.0 |
| 20260507130017 | 22 | 331 | 3.2 | 14.5 | 0.00 | 0.00 | 0.00 | 52 | 1012.1 |
| 20260507125528 | 21 | 79 | 6.4 | 12.9 | 0.00 | 0.00 | 0.00 | 52 | 1012.1 |
| 20260507125028 | 21 | 58 | 4.8 | 14.5 | 0.00 | 0.00 | 0.00 | 55 | 1012.2 |
| 20260507124517 | 21 | 200 | 3.2 | 14.5 | 0.00 | 0.00 | 0.00 | 53 | 1012.2 |
| 20260507124027 | 21 | 77 | 6.4 | 11.3 | 0.00 | 0.00 | 0.00 | 56 | 1012.3 |
| 20260507123516 | 21 | 125 | 4.8 | 9.7 | 0.00 | 0.00 | 0.00 | 53 | 1012.3 |
| 20260507123027 | 21 | 146 | 4.8 | 14.5 | 0.00 | 0.00 | 0.00 | 55 | 1012.4 |
| 20260507122516 | 21 | 96 | 8.0 | 14.5 | 0.00 | 0.00 | 0.00 | 53 | 1012.4 |
| 20260507122016 | 21 | 101 | 3.2 | 11.3 | 0.00 | 0.00 | 0.00 | 57 | 1012.5 |
| 20260507121528 | 21 | 169 | 4.8 | 14.5 | 0.00 | 0.00 | 0.00 | 54 | 1012.4 |
| 20260507121017 | 21 | 90 | 6.4 | 14.5 | 0.00 | 0.00 | 0.00 | 56 | 1012.5 |
| 20260507120517 | 21 | 157 | 4.8 | 11.3 | 0.00 | 0.00 | 0.00 | 56 | 1012.5 |
| 20260507120017 | 21 | 129 | 3.2 | 12.9 | 0.00 | 0.00 | 0.00 | 57 | 1012.6 |
| 20260507115516 | 21 | 333 | 3.2 | 9.7 | 0.00 | 0.08 | 0.00 | 58 | 1012.7 |
| 20260507115016 | 21 | 139 | 3.2 | 9.7 | 0.00 | 0.08 | 0.00 | 53 | 1012.8 |
| 20260507114528 | 21 | 89 | 3.2 | 9.7 | 0.00 | 0.08 | 0.00 | 55 | 1012.7 |
| 20260507114017 | 21 | 126 | 4.8 | 9.7 | 0.00 | 0.08 | 0.00 | 58 | 1012.8 |
| 20260507113516 | 21 | 131 | 1.6 | 12.9 | 0.00 | 0.08 | 0.00 | 58 | 1012.8 |
| 20260507113016 | 20 | 19 | 1.6 | 14.5 | 0.00 | 0.08 | 0.00 | 60 | 1012.8 |
| 20260507112516 | 20 | 134 | 8.0 | 16.1 | 0.00 | 0.08 | 0.00 | 57 | 1013.0 |
| 20260507112016 | 20 | 161 | 3.2 | 16.1 | 0.00 | 0.08 | 0.00 | 56 | 1013.0 |
| 20260507111517 | 20 | 89 | 4.8 | 12.9 | 0.00 | 0.08 | 0.00 | 57 | 1013.2 |
| 20260507111016 | 20 | 125 | 3.2 | 17.7 | 0.00 | 0.08 | 0.00 | 62 | 1013.2 |
| 20260507110516 | 20 | 132 | 6.4 | 17.7 | 0.00 | 0.08 | 0.00 | 57 | 1013.2 |
| 20260507110016 | 20 | 67 | 6.4 | 11.3 | 0.00 | 0.08 | 0.00 | 57 | 1013.2 |
| 20260507105516 | 20 | 198 | 1.6 | 12.9 | 0.00 | 0.36 | 0.00 | 61 | 1013.3 |
| 20260507105017 | 19 | 80 | 6.4 | 12.9 | 0.00 | 0.36 | 0.00 | 60 | 1013.4 |
| 20260507104516 | 20 | 79 | 4.8 | 11.3 | 0.00 | 0.36 | 0.00 | 54 | 1013.4 |
| 20260507104017 | 20 | 258 | 1.6 | 8.0 | 0.00 | 0.36 | 0.00 | 63 | 1013.4 |
| 20260507103516 | 19 | 96 | 3.2 | 16.1 | 0.00 | 0.36 | 0.00 | 59 | 1013.5 |
| 20260507103017 | 19 | 142 | 8.0 | 16.1 | 0.00 | 0.36 | 0.00 | 59 | 1013.5 |
| 20260507102517 | 18 | 60 | 8.0 | 14.5 | 0.00 | 0.36 | 0.00 | 59 | 1013.6 |
| 20260507102016 | 18 | 123 | 3.2 | 12.9 | 0.00 | 0.36 | 0.00 | 62 | 1013.6 |
| 20260507101517 | 19 | 79 | 6.4 | 12.9 | 0.00 | 0.36 | 0.00 | 60 | 1013.7 |
| 20260507101017 | 18 | 70 | 3.2 | 11.3 | 0.00 | 0.36 | 0.00 | 60 | 1013.7 |
| 20260507100527 | 18 | 155 | 6.4 | 11.3 | 0.00 | 0.36 | 0.00 | 62 | 1013.8 |
| 20260507100017 | 18 | 125 | 3.2 | 12.9 | 0.00 | 0.36 | 0.00 | 63 | 1013.8 |
| 20260507095517 | 18 | 110 | 4.8 | 12.9 | 0.00 | 0.46 | 0.00 | 65 | 1014.0 |
| 20260507095017 | 18 | 77 | 1.6 | 11.3 | 0.00 | 0.46 | 0.00 | 67 | 1013.9 |
| 20260507094516 | 18 | 125 | 1.6 | 11.3 | 0.00 | 0.46 | 0.00 | 69 | 1014.2 |
| 20260507094017 | 18 | 77 | 6.4 | 11.3 | 0.00 | 0.46 | 0.00 | 67 | 1014.2 |
| 20260507093516 | 18 | 282 | 1.6 | 9.7 | 0.00 | 0.46 | 0.00 | 70 | 1014.1 |
| 20260507093017 | 17 | 72 | 3.2 | 9.7 | 0.00 | 0.46 | 0.00 | 70 | 1014.2 |
| 20260507092517 | 17 | 127 | 4.8 | 9.7 | 0.00 | 0.46 | 0.00 | 68 | 1014.2 |
| 20260507092017 | 17 | 116 | 1.6 | 11.3 | 0.00 | 0.46 | 0.00 | 71 | 1014.2 |
| 20260507091517 | 17 | 110 | 4.8 | 11.3 | 0.00 | 0.46 | 0.00 | 70 | 1014.2 |
| 20260507091017 | 17 | 88 | 4.8 | 12.9 | 0.00 | 0.46 | 0.00 | 71 | 1014.1 |
| 20260507090017 | 16 | 89 | 6.4 | 11.3 | 0.00 | 0.46 | 0.00 | 70 | 1014.2 |
| 20260507085516 | 16 | 99 | 4.8 | 14.5 | 0.00 | 0.51 | 0.00 | 75 | 1014.1 |
| 20260507085017 | 16 | 86 | 4.8 | 14.5 | 0.00 | 0.51 | 0.00 | 72 | 1014.2 |
| 20260507084517 | 16 | 76 | 3.2 | 11.3 | 0.00 | 0.51 | 0.00 | 74 | 1014.3 |
| 20260507084017 | 16 | 129 | 3.2 | 9.7 | 0.00 | 0.51 | 0.00 | 78 | 1014.3 |
| 20260507083528 | 16 | 91 | 4.8 | 9.7 | 0.00 | 0.51 | 0.00 | 78 | 1014.4 |
| 20260507083028 | 16 | 169 | 4.8 | 9.7 | 0.00 | 0.51 | 0.00 | 79 | 1014.3 |
| 20260507082517 | 16 | 124 | 3.2 | 9.7 | 0.00 | 0.51 | 0.00 | 78 | 1014.4 |
| 20260507082017 | 16 | 141 | 1.6 | 6.4 | 0.00 | 0.51 | 0.00 | 83 | 1014.4 |
| 20260507081517 | 15 | 120 | 3.2 | 8.0 | 0.00 | 0.51 | 0.00 | 83 | 1014.5 |
| 20260507081017 | 15 | 101 | 3.2 | 8.0 | 0.00 | 0.51 | 0.00 | 83 | 1014.5 |
| 20260507080517 | 15 | 91 | 3.2 | 9.7 | 0.00 | 0.51 | 0.00 | 85 | 1014.4 |
| 20260507080017 | 14 | 94 | 4.8 | 9.7 | 0.00 | 0.51 | 0.00 | 85 | 1014.5 |
| 20260507075517 | 14 | 108 | 1.6 | 6.4 | 0.00 | 0.51 | 0.00 | 87 | 1014.5 |
| 20260507075017 | 14 | 100 | 0.0 | 4.8 | 0.00 | 0.51 | 0.00 | 88 | 1014.4 |
| 20260507074517 | 13 | 91 | 3.2 | 4.8 | 0.00 | 0.51 | 0.00 | 88 | 1014.5 |
| 20260507074017 | 13 | 150 | 1.6 | 8.0 | 0.00 | 0.51 | 0.00 | 91 | 1014.4 |
| 20260507073517 | 13 | 136 | 1.6 | 8.0 | 0.00 | 0.51 | 0.00 | 91 | 1014.5 |
| 20260507073017 | 12 | 82 | 3.2 | 8.0 | 0.00 | 0.51 | 0.00 | 92 | 1014.6 |
| 20260507072528 | 12 | 93 | 3.2 | 6.4 | 0.00 | 0.51 | 0.00 | 92 | 1014.6 |
| 20260507072017 | 12 | 86 | 3.2 | 6.4 | 0.00 | 0.51 | 0.00 | 94 | 1014.7 |
| 20260507071529 | 12 | 143 | 1.6 | 4.8 | 0.00 | 0.51 | 0.00 | 94 | 1014.6 |
| 20260507071017 | 12 | 113 | 0.0 | 1.6 | 0.00 | 0.51 | 0.00 | 95 | 1014.5 |
| 20260507070539 | 11 | 163 | 0.0 | 0.0 | 0.00 | 0.51 | 0.00 | 95 | 1014.6 |
| 20260507070017 | 11 | 163 | 0.0 | 0.0 | 0.00 | 0.51 | 0.00 | 95 | 1014.5 |
| 20260507065529 | 11 | 163 | 0.0 | 0.0 | 0.00 | 0.51 | 0.00 | 94 | 1014.5 |
| 20260507065017 | 11 | 163 | 0.0 | 0.0 | 0.00 | 0.51 | 0.00 | 95 | 1014.6 |
| 20260507064517 | 10 | 163 | 0.0 | 0.0 | 0.00 | 0.51 | 0.00 | 95 | 1014.5 |
| 20260507064017 | 9 | 163 | 0.0 | 0.0 | 0.00 | 0.51 | 0.00 | 96 | 1014.4 |
| 20260507063518 | 8 | 163 | 0.0 | 0.0 | 0.00 | 0.51 | 0.00 | 96 | 1014.4 |
| 20260507063017 | 8 | 163 | 0.0 | 0.0 | 0.00 | 0.51 | 0.00 | 96 | 1014.3 |
| 20260507062517 | 7 | 163 | 0.0 | 0.0 | 0.00 | 0.51 | 0.00 | 96 | 1014.5 |
| 20260507062018 | 6 | 163 | 0.0 | 0.0 | 0.00 | 0.51 | 0.00 | 96 | 1014.6 |
| 20260507061517 | 6 | 163 | 0.0 | 0.0 | 0.00 | 0.51 | 0.00 | 96 | 1014.7 |
| 20260507061017 | 5 | 163 | 0.0 | 0.0 | 0.00 | 0.51 | 0.00 | 96 | 1014.6 |
| 20260507060517 | 5 | 163 | 0.0 | 0.0 | 0.00 | 0.51 | 0.00 | 96 | 1014.6 |
| 20260507060017 | 5 | 163 | 0.0 | 0.0 | 0.00 | 0.51 | 0.00 | 96 | 1014.6 |
| 20260507055517 | 4 | 163 | 0.0 | 0.0 | 0.00 | 0.51 | 0.00 | 96 | 1014.5 |
| 20260507055017 | 4 | 163 | 0.0 | 0.0 | 0.00 | 0.51 | 0.00 | 95 | 1014.5 |
| 20260507054518 | 3 | 163 | 0.0 | 0.0 | 0.00 | 0.51 | 0.00 | 95 | 1014.4 |
| 20260507054017 | 3 | 163 | 0.0 | 0.0 | 0.00 | 0.51 | 0.00 | 95 | 1014.3 |
| 20260507053517 | 3 | 163 | 0.0 | 0.0 | 0.00 | 0.51 | 0.00 | 95 | 1014.4 |
| 20260507053018 | 3 | 163 | 0.0 | 0.0 | 0.00 | 0.51 | 0.00 | 95 | 1014.3 |
| 20260507052528 | 3 | 163 | 0.0 | 0.0 | 0.00 | 0.51 | 0.00 | 94 | 1014.2 |
| 20260507052017 | 3 | 163 | 0.0 | 0.0 | 0.00 | 0.51 | 0.00 | 94 | 1014.3 |
| 20260507051518 | 3 | 163 | 0.0 | 0.0 | 0.00 | 0.51 | 0.00 | 94 | 1014.3 |
| 20260507051017 | 3 | 163 | 0.0 | 0.0 | 0.00 | 0.51 | 0.00 | 94 | 1014.2 |
| 20260507050517 | 3 | 163 | 0.0 | 0.0 | 0.00 | 0.51 | 0.00 | 94 | 1014.2 |
| 20260507050017 | 3 | 163 | 0.0 | 0.0 | 0.00 | 0.51 | 0.00 | 94 | 1014.2 |
| 20260507045517 | 3 | 163 | 0.0 | 0.0 | 0.00 | 0.51 | 0.00 | 94 | 1014.2 |
| 20260507045018 | 3 | 163 | 0.0 | 0.0 | 0.00 | 0.51 | 0.00 | 94 | 1014.2 |
| 20260507044517 | 3 | 163 | 0.0 | 0.0 | 0.00 | 0.51 | 0.00 | 94 | 1014.2 |
| 20260507044017 | 3 | 163 | 0.0 | 0.0 | 0.00 | 0.51 | 0.00 | 95 | 1014.2 |
| 20260507043517 | 3 | 163 | 0.0 | 0.0 | 0.00 | 0.51 | 0.00 | 95 | 1014.2 |
| 20260507043018 | 3 | 163 | 0.0 | 0.0 | 0.00 | 0.51 | 0.00 | 94 | 1014.3 |
| 20260507042518 | 3 | 163 | 0.0 | 0.0 | 0.00 | 0.51 | 0.00 | 94 | 1014.3 |
| 20260507042017 | 3 | 163 | 0.0 | 0.0 | 0.00 | 0.51 | 0.00 | 94 | 1014.3 |
| 20260507041517 | 3 | 163 | 0.0 | 0.0 | 0.00 | 0.51 | 0.00 | 94 | 1014.4 |
| 20260507041016 | 3 | 163 | 0.0 | 0.0 | 0.00 | 0.51 | 0.00 | 94 | 1014.3 |
| 20260507040517 | 3 | 163 | 0.0 | 0.0 | 0.00 | 0.51 | 0.00 | 94 | 1014.3 |
| 20260507040017 | 3 | 163 | 0.0 | 0.0 | 0.00 | 0.51 | 0.00 | 94 | 1014.3 |
| 20260507035517 | 3 | 163 | 0.0 | 0.0 | 0.00 | 0.58 | 0.00 | 94 | 1014.3 |
| 20260507035016 | 3 | 163 | 0.0 | 0.0 | 0.00 | 0.58 | 0.00 | 94 | 1014.3 |
| 20260507034516 | 4 | 163 | 0.0 | 0.0 | 0.00 | 0.58 | 0.00 | 94 | 1014.3 |
| 20260507034017 | 4 | 163 | 0.0 | 0.0 | 0.00 | 0.58 | 0.00 | 94 | 1014.3 |
| 20260507033517 | 4 | 163 | 0.0 | 0.0 | 0.00 | 0.58 | 0.00 | 94 | 1014.3 |
| 20260507033017 | 4 | 163 | 0.0 | 0.0 | 0.00 | 0.58 | 0.00 | 94 | 1014.4 |
| 20260507032518 | 4 | 163 | 0.0 | 0.0 | 0.00 | 0.58 | 0.00 | 94 | 1014.4 |
| 20260507032017 | 4 | 163 | 0.0 | 0.0 | 0.00 | 0.58 | 0.00 | 94 | 1014.3 |
| 20260507031517 | 4 | 163 | 0.0 | 0.0 | 0.00 | 0.58 | 0.00 | 94 | 1014.3 |
| 20260507031016 | 4 | 163 | 0.0 | 0.0 | 0.00 | 0.58 | 0.00 | 94 | 1014.4 |
| 20260507030516 | 4 | 163 | 0.0 | 0.0 | 0.00 | 0.58 | 0.00 | 94 | 1014.4 |
| 20260507030028 | 5 | 163 | 0.0 | 0.0 | 0.00 | 0.58 | 0.00 | 95 | 1014.4 |
| 20260507025517 | 4 | 163 | 0.0 | 0.0 | 0.00 | 0.64 | 0.00 | 94 | 1014.4 |
| 20260507025017 | 4 | 163 | 0.0 | 0.0 | 0.00 | 0.64 | 0.00 | 94 | 1014.4 |
| 20260507024517 | 5 | 163 | 0.0 | 0.0 | 0.00 | 0.64 | 0.00 | 94 | 1014.4 |
| 20260507024029 | 5 | 163 | 0.0 | 0.0 | 0.00 | 0.64 | 0.00 | 94 | 1014.3 |
| 20260507023517 | 5 | 163 | 0.0 | 0.0 | 0.00 | 0.64 | 0.00 | 94 | 1014.4 |
| 20260507023017 | 5 | 163 | 0.0 | 0.0 | 0.00 | 0.64 | 0.00 | 94 | 1014.4 |
| 20260507022517 | 5 | 163 | 0.0 | 0.0 | 0.00 | 0.64 | 0.00 | 94 | 1014.4 |
| 20260507022018 | 5 | 163 | 0.0 | 0.0 | 0.00 | 0.64 | 0.00 | 94 | 1014.4 |
| 20260507021528 | 5 | 163 | 0.0 | 0.0 | 0.00 | 0.64 | 0.00 | 94 | 1014.4 |
| 20260507021028 | 5 | 163 | 0.0 | 0.0 | 0.00 | 0.64 | 0.00 | 94 | 1014.5 |
| 20260507020528 | 5 | 163 | 0.0 | 0.0 | 0.00 | 0.64 | 0.00 | 94 | 1014.4 |
| 20260507020029 | 5 | 163 | 0.0 | 0.0 | 0.00 | 0.64 | 0.00 | 94 | 1014.4 |
| 20260507015516 | 5 | 163 | 0.0 | 0.0 | 0.00 | 0.64 | 0.00 | 94 | 1014.4 |
| 20260507015016 | 5 | 163 | 0.0 | 0.0 | 0.00 | 0.64 | 0.00 | 94 | 1014.4 |
| 20260507014516 | 5 | 163 | 0.0 | 0.0 | 0.00 | 0.64 | 0.00 | 94 | 1014.4 |
| 20260507014017 | 6 | 163 | 0.0 | 0.0 | 0.00 | 0.64 | 0.00 | 94 | 1014.4 |
| 20260507013528 | 6 | 163 | 0.0 | 0.0 | 0.00 | 0.64 | 0.00 | 94 | 1014.4 |
| 20260507013017 | 6 | 163 | 0.0 | 0.0 | 0.00 | 0.64 | 0.00 | 93 | 1014.5 |
| 20260507012517 | 6 | 163 | 0.0 | 0.0 | 0.00 | 0.64 | 0.00 | 93 | 1014.6 |
| 20260507012029 | 6 | 163 | 0.0 | 0.0 | 0.00 | 0.64 | 0.00 | 94 | 1014.6 |
| 20260507011518 | 6 | 163 | 0.0 | 0.0 | 0.00 | 0.64 | 0.00 | 94 | 1014.6 |
| 20260507011017 | 6 | 163 | 0.0 | 0.0 | 0.00 | 0.64 | 0.00 | 94 | 1014.5 |
| 20260507010518 | 6 | 163 | 0.0 | 0.0 | 0.00 | 0.64 | 0.00 | 94 | 1014.5 |